Regional Weather Roundup
Issued by NWS Sioux Falls, SD

Home | Current Version | Previous Version | Text Only | Print | Product List | Glossary On
Versions: 1 2 3 4 5 6 7 8 9 10 11 12 13 14 15 16 17 18 19 20 21 22 23 24 25 26 27 28 29 30 31 32 33 34 35 36 37 38 39 40 41 42 43 44 45 46 47 48 49 50
000
ASUS43 KFSD 290910
RWRFSD

WEATHER ROUNDUP FOR SE SOUTH DAKOTA/SW MINNESOTA/NW IOWA
NATIONAL WEATHER SERVICE SIOUX FALLS SD
300 AM CST THU JAN 29 2015

NOTE: "FAIR" INDICATES FEW OR NO CLOUDS BELOW 12,000 FEET WITH NO
SIGNIFICANT WEATHER AND OR OBSTRUCTIONS TO VISIBILITY.


SDZ038>040-050-052>070-291000-
SOUTHEAST SOUTH DAKOTA

CITY           SKY/WX    TMP DP  RH WIND       PRES   REMARKS
CHAMBERLAIN    CLOUDY    35  28  76 NW22G31   30.27R WCI  23
HURON          CLOUDY    33  28  81 NW17G29   30.21R WCI  22
MADISON        CLOUDY    30  30 100 NW26G36   30.12R WCI  16
MITCHELL       CLOUDY    34  28  79 NW22G29   30.22R WCI  22
SIOUX FALLS    CLOUDY    33  27  78 NW24G32   30.11R WCI  20
WINNER         CLOUDY    37  27  67 NW25G36   30.29R
YANKTON        CLOUDY    36  27  69 NW23G36   30.19R
$$

MNZ071-072-080-081-089-090-097-098-291000-
SOUTHWEST MINNESOTA

CITY           SKY/WX    TMP DP  RH WIND       PRES   REMARKS
FAIRMONT       CLOUDY    34  28  80 NW24G30   29.95R WCI  21
JACKSON        LGT SNOW  32  30  93 NW33G46   29.99R WCI  17
LUVERNE        CLOUDY    34  30  86 N24G31    30.09R WCI  21
MARSHALL       CLOUDY    30  23  74 N33G43    30.07R WCI  14
MONTEVIDEO     CLOUDY    30  28  93 N29G43    30.08R WCI  15
PIPESTONE      CLOUDY    32  28  86 N18G38    30.06R WCI  20
REDWOOD FALLS  CLOUDY    33  28  81 NW20G37   30.02R WCI  21
TRACY          CLOUDY    32  29  88 N26G39    30.05R WCI  18
WINDOM         CLOUDY    30  30 100 NW31G37   30.00R WCI  15
WORTHINGTON    CLOUDY   N/A N/A N/A NW29G43   30.03R
$$

IAZ001>003-012>014-020>022-031-032-NEZ013-014-SDZ071-291000-
NORTHWEST IOWA

CITY           SKY/WX    TMP DP  RH WIND       PRES   REMARKS
CHEROKEE       CLOUDY    34  32  93 NW15G24   30.05R WCI  24
DENISON        MIX PCPN  34  34 100 NW20G31   30.02R WCI  22
ESTHERVILLE    CLOUDY    32  30  92 NW26G36   29.98R WCI  18
LE MARS        MIX PCPN  34  32  93 NW23G33   30.11R WCI  22
ORANGE CITY    CLOUDY    36  30  80 NW20      30.08R
SHELDON        MIX PCPN  32  32 100 NW24G39   30.05R WCI  19
SIOUX CITY     CLOUDY    35  30  82 NW23G35   30.11R WCI  23
SPENCER        CLOUDY    34  29  82 NW22G32   30.02R WCI  22
STORM LAKE     CLOUDY    34  32  93 NW20G32   30.02R WCI  22
$$

ABBREVIATIONS USED IN REMARKS
   TC - TEMPERATURE IN CELSIUS
  WCI - WIND CHILL INDEX
   HX - HEAT INDEX
  VSB - VISIBILITY




USA.gov is the U.S. government's official web portal to all federal, state and local government web resources and services.